Weather observations for the past three days for
Fullerton, Fullerton Municipal Airport
Imperial (Metric)
Date Time (pdt) Wind (mph) Vis. (mi.) Weather Sky Cond. Temperature (ºF) Relative Humidity Wind Chill (°F) Heat Index (°F) Pressure Precipitation (in)
Air Dwpt 6 hour altimeter (in) sea level (mb) 1 hr 3 hr 6 hr
Max. Min.
21 12:53 SW 7 9.00 Fair CLR 82.9 61 48% 83 29.88 1011.8
21 11:53 S 7 8.00 Fair CLR 82.9 60.1 46% 83 29.89 1012.0
21 10:53 Vrbl 3 8.00 Fair CLR 80.1 61 81 66.9 52% 81 29.89 1012.1
21 09:53 Vrbl 3 8.00 Fair CLR 77 61 58% 79 29.9 1012.4
21 08:53 Calm 8.00 Fair CLR 73.9 61 64% 29.9 1012.3
21 07:53 Calm 7.00 Fair CLR 70 63 79% 29.89 1011.9
21 06:53 Calm 5.00 Fog/Mist CLR 66.9 66 97% 29.87 1011.5
21 05:53 S 3 7.00 Fair CLR 66.9 66 97% 29.86 1011.1
21 04:53 Calm 7.00 Fair CLR 66.9 66 73.9 66.9 97% 29.85 1010.8
21 03:53 S 3 7.00 Fair CLR 66.9 66 97% 29.86 1011.0
21 02:53 Calm 7.00 Fair CLR 68 66 93% 29.87 1011.3
21 01:53 S 3 8.00 Fair CLR 69.1 64.9 87% 29.87 1011.5
21 00:53 S 5 9.00 Fair CLR 70 64.9 84% 29.89 1012.0
20 23:53 S 5 9.00 Fair CLR 72 64.9 79% 29.89 1012.0
20 22:53 SW 3 10.00 Fair CLR 73.9 60.1 90 73.9 62% 29.88 1011.8
20 21:53 W 3 10.00 Fair CLR 75.9 57 52% 78 29.88 1011.6
20 20:53 W 3 10.00 Fair CLR 79 54 42% 79 29.86 1011.1
20 19:53 Vrbl 5 9.00 Fair CLR 81 55.9 42% 81 29.85 1010.7
20 18:53 W 5 9.00 Fair CLR 82.9 57.9 43% 83 29.84 1010.4
20 17:53 Vrbl 5 9.00 Fair CLR 87.1 60.1 40% 87 29.84 1010.3
20 16:53 W 6 9.00 Fair CLR 90 61 90 81 38% 90 29.85 1010.7
20 15:53 S 7 9.00 A Few Clouds FEW003 89.1 62.1 41% 89 29.86 1011.1
20 14:53 S 5 9.00 Fair CLR 87.1 62.1 43% 88 29.88 1011.8
20 13:53 SW 5 8.00 Fair CLR 88 63 43% 89 29.89 1012.2
20 12:53 SW 8 8.00 Fair CLR 86 62.1 45% 87 29.91 1012.8
20 11:53 Vrbl 3 5.00 Fair with Haze CLR 86 61 43% 86 29.92 1013.0
20 10:53 Vrbl 5 5.00 Fair with Haze CLR 82 61 82 64.9 49% 83 29.93 1013.4
20 09:53 SW 3 4.00 Fair with Haze CLR 75.9 61 60% 78 29.94 1013.8
20 08:53 Vrbl 5 4.00 Fair with Haze CLR 71.1 62.1 73% 29.94 1013.7
20 07:53 Calm 4.00 Fair with Haze CLR 69.1 64 84% 29.94 1013.6
20 06:53 Calm 3.00 Fog/Mist CLR 66 63 90% 29.93 1013.3
20 05:53 Calm 4.00 Fog/Mist CLR 64.9 64 97% 29.91 1012.8
20 04:53 Calm 5.00 Fog/Mist CLR 64.9 64 70 64.9 97% 29.9 1012.4
20 03:53 Calm 4.00 Fog/Mist CLR 66 64 93% 29.9 1012.4
20 02:53 Calm 5.00 Fog/Mist CLR 66.9 64.9 93% 29.9 1012.5
20 01:53 Calm 5.00 Fog/Mist CLR 68 64.9 90% 29.91 1012.7
20 00:53 W 3 5.00 Fog/Mist CLR 68 64.9 90% 29.92 1013.0
19 23:53 W 3 6.00 Fog/Mist CLR 70 66 87% 29.92 1013.1
19 22:53 Calm 6.00 Fog/Mist CLR 70 66 84 70 87% 29.93 1013.4
19 21:53 Vrbl 3 7.00 Fair CLR 72 66 82% 29.93 1013.3
19 20:53 Vrbl 3 7.00 Fair CLR 75 63 66% 77 29.91 1012.8
19 19:53 W 3 6.00 Fair with Haze CLR 79 61 54% 80 29.9 1012.3
19 18:53 S 5 6.00 Fair with Haze CLR 80.1 62.1 54% 81 29.89 1012.2
19 17:53 S 6 6.00 Fair with Haze CLR 82 62.1 51% 83 29.89 1012.1
19 16:53 S 5 6.00 Fair with Haze CLR 82.9 63 86 79 51% 84 29.9 1012.3
19 15:53 S 6 6.00 Fair with Haze CLR 82.9 63 51% 84 29.92 1013.1
19 14:53 S 7 5.00 Fair with Haze CLR 82.9 64 53% 84 29.93 1013.5
19 13:53 S 7 6.00 Fair with Haze CLR 84 63 49% 85 29.94 1013.9
19 12:53 Vrbl 6 6.00 Fair with Haze CLR 86 64 48% 87 29.96 1014.2
19 11:53 Vrbl 3 5.00 Fair with Haze CLR 84 63 49% 85 29.96 1014.6
19 10:53 Calm 5.00 Fair with Haze CLR 79 63 79 66.9 58% 81 29.98 1015.0
19 09:53 Calm 4.00 Fair with Haze CLR 75 63 66% 77 29.98 1015.0
19 08:53 Calm 4.00 Partly Cloudy with Haze SCT011 72 64 76% 29.98 1015.2
19 07:53 Vrbl 3 3.00 Fog/Mist OVC010 68 66.9 96% 29.99 1015.4
19 06:53 Calm 3.00 Fog/Mist OVC009 66.9 66 97% 29.97 1014.9
19 05:53 Calm 5.00 Fog/Mist OVC008 66.9 64.9 93% 29.96 1014.4
19 04:53 Calm 5.00 Fog/Mist OVC008 66.9 66.9 69.1 66 100% 29.96 1014.3
19 03:53 S 3 6.00 Fog/Mist OVC008 66.9 66 97% 29.95 1014.2
19 02:53 S 5 6.00 Fog/Mist OVC009 66.9 66 97% 29.96 1014.3
19 01:53 Calm 6.00 Fog/Mist CLR 66.9 66 97% 29.97 1014.6
19 00:53 S 3 6.00 Fog/Mist FEW010 66.9 66 97% 29.98 1015.0
18 23:53 Calm 6.00 Fog/Mist CLR 68 66 93% 29.99 1015.3
18 22:53 SE 3 7.00 Fair CLR 69.1 64.9 82 68 87% 29.98 1015.1
18 21:53 S 6 8.00 Fair CLR 69.1 66 90% 29.97 1014.6
18 20:53 S 7 8.00 Fair CLR 70 66 87% 29.96 1014.2
18 19:53 S 7 7.00 Fair CLR 72 66 82% 29.94 1013.8
18 18:53 S 8 7.00 Fair CLR 75.9 63 64% 78 29.93 1013.5
18 17:53 S 9 7.00 Fair CLR 78.1 63 60% 80 29.91 1012.8
18 16:53 S 8 7.00 Fair CLR 82 63 84 77 53% 83 29.92 1012.9
18 15:53 Vrbl 7 8.00 Fair CLR 82.9 63 51% 84 29.93 1013.4
18 14:53 Vrbl 6 7.00 Fair CLR 81 63 54% 82 29.95 1013.9
18 13:53 SW 8 7.00 Fair CLR 80.1 63 56% 81 29.96 1014.4
Date Time (pdt) Wind (mph) Vis. (mi.) Weather Sky Cond. Air Dwpt Max. Min. Relative Humidity Wind Chill (°F) Heat Index (°F) altimeter (in) sea level (mb) 1 hr 3 hr 6 hr
6 hour
Temperature (ºF) Pressure Precipitation (in)